Content
SEND FEEDBACK

Daily
Averages
Monthly
Summary
Canada

BIBLE HILL, NOVA SCOTIA


Home > North America > Canada > Nova Scotia
Elevation: 131 feet     Latitude: 45 22N     Longitude: 063 16W

WEATHER
 
SELECT A DAY
Number of Records: 99,197;   Date Range: 6/19/04 - 9/30/14
 
SHARE

PRINT THIS DATA

[ ← Previous Day ]
WEATHER ALMANAC - OCTOBER 25, 2013
[ Next Day → ]
[ °C ]   °F
Weather ElementAverageHighLow
Temperature41.6 °F46.8 °F (4:00 pm)34.3 °F (11:00 pm)
Dewpoint31.5 °F35.8 °F (8:00 pm)27.1 °F (4:00 am)
Humidity66.2 %91 % (11:00 pm)43 % (3:00 pm)
Barometer29.79 in29.92 in (11:00 pm)29.65 in (1:00 am)
Wind Speed10.6 mph19.6 mph (3:00 pm)
Wind Gust27.6 mph (3:00 pm)
Weather ElementAverage
Wind DirectionW (269.3 °)

Weather ElementTotal
Precipitation---
Heating Degree Days24.5 (Base 65)
Averaged from 27 records on October 25, 2013
WEATHER CONDITIONS BREAKOUT
WIND DIRECTION BREAKOUT
WEATHER BY HOUR - OCTOBER 25, 2013
[ °C ]   °F
Local TimeTemperatureDewpointHumidityBarometerVisibilityWind DirectionWind SpeedGust SpeedPrecipitationEventsConditions
1:00 AM39.9 °F31.8 °F73 %29.65 inWSW (250°)12.7 mph19.6 mph
2:00 AM39.4 °F33.3 °F79 %29.65 inWSW (240°)9.2 mph
3:00 AM40.0 °F30.0 °F56 %29.68 inWest (270°)9.2 mph
3:00 AM40.5 °F29.7 °F65 %29.68 inWest (270°)9.2 mph
4:00 AM39.4 °F27.1 °F62 %29.68 inWNW (290°)10.4 mph
5:00 AM39.9 °F27.9 °F62 %29.70 inWest (280°)12.7 mph
6:00 AM39.2 °F27.9 °F64 %29.72 inWest (280°)10.4 mph
7:00 AM38.8 °F28.6 °F67 %29.74 inWest (280°)11.5 mph
8:00 AM37.2 °F29.1 °F73 %29.77 inWNW (290°)5.8 mph
9:00 AM39.0 °F29.0 °F57 %29.79 inWNW (290°)11.5 mph
9:00 AM39.0 °F28.9 °F67 %29.79 inWNW (290°)11.5 mph
10:00 AM41.4 °F29.8 °F64 %29.80 inWest (280°)12.7 mph
11:00 AM45.7 °F31.8 °F58 %29.81 inWest (270°)11.5 mph
12:00 PM45.5 °F29.8 °F54 %29.81 inWest (260°)12.7 mph19.6 mph
1:00 PM46.2 °F31.6 °F57 %29.81 inWest (260°)15.0 mph21.9 mph
2:00 PM45.3 °F31.1 °F58 %29.79 inWSW (250°)18.4 mph25.3 mph
3:00 PM46.0 °F31.0 °F43 %29.80 inWSW (250°)19.6 mph
3:00 PM46.0 °F30.7 °F55 %29.80 inWSW (250°)19.6 mph27.6 mph
4:00 PM46.8 °F34.5 °F62 %29.82 inWest (270°)15.0 mph21.9 mph
5:00 PM45.3 °F33.8 °F64 %29.83 inWest (270°)10.4 mph
6:00 PM44.1 °F35.4 °F72 %29.84 inWest (270°)9.2 mph
7:00 PM43.0 °F34.9 °F73 %29.87 inWest (270°)6.9 mph
8:00 PM42.3 °F35.8 °F78 %29.89 inWest (270°)6.9 mph
9:00 PM41.0 °F35.0 °F70 %29.90 inWSW (250°)3.5 mph
9:00 PM40.6 °F34.5 °F79 %29.90 inWSW (250°)3.5 mph
10:00 PM38.7 °F34.3 °F84 %29.91 inWest (270°)4.6 mph
11:00 PM34.3 °F32.0 °F91 %29.92 inWNW (300°)2.3 mph
Hourly data recorded from CZDB, located miles away from Bible Hill, Nova Scotia







STORIES FROM OUR PARTNERS